Location: Oshawa
(43.9000°N, 78.8670°W)
Time: 03:25:37
(UTC-05:00)

Amateur Radio Satellites - All Passes

Search period start: 07 February 2016 02:55
Search period end: 08 February 2016 02:55
Location: Oshawa, 43.9000°N, 78.8670°W

Satellite Date Start Highest point End Downlink Frequencies (MHz)
Time Altitude Azimuth
DANDE 07 Feb 02:55:55 03:03:25 87° 99° (E) 03:11:59 436.750
ITAMSAT 1 07 Feb 03:00:17 03:05:32 71° 103° (ESE) 03:10:45 435.822/435.867
YUBILEINY 07 Feb 03:07:05 03:15:17 47° 88° (E) 03:23:33 435.215
STARS 07 Feb 03:11:01 03:15:25 80° 75° (ENE) 03:19:51 437.465
BEESAT 3 07 Feb 03:18:10 03:21:59 47° 241° (WSW) 03:25:46 437.485
KKS-1 07 Feb 03:19:18 03:23:36 47° 260° (W) 03:27:55 437.445
AO-7 07 Feb 03:27:17 03:34:55 38° 98° (E) 03:42:29 29.400- 29.500
AIST 2 07 Feb 03:27:50 03:30:58 20° 41° (NE) 03:34:04 435.215
BEESAT 2 07 Feb 03:36:20 03:40:11 47° 241° (WSW) 03:44:00 435.950
Oscar 19 07 Feb 03:40:33 03:42:44 13° 303° (WNW) 03:44:54 437.125/150
Gurwin Techsat 1B 07 Feb 03:42:55 03:47:26 29° 295° (WNW) 03:51:56 435.225
PHONESAT 2.4 07 Feb 03:58:46 04:01:52 40° 172° (S) 04:04:59 2401.200-2431.200
Cosmos 2491 07 Feb 04:11:45 04:19:20 35° 276° (W) 04:26:57 435.465 / 435.565
JAS-2 07 Feb 04:15:57 04:18:10 12° 309° (NW) 04:20:19 435.910
MOZHAYETS 4 07 Feb 04:25:56 04:29:48 27° 265° (W) 04:33:43
M-CUBED/EXP-1 PRIME 07 Feb 04:26:10 04:29:26 52° 106° (ESE) 04:32:50 437.505
SO-50 07 Feb 04:30:28 04:31:44 11° 106° (ESE) 04:32:59 436.795
HORYU 2 07 Feb 04:35:50 04:40:14 57° 101° (ESE) 04:44:36 437.375
CUSAT 1 07 Feb 04:37:48 04:42:38 17° 304° (NW) 04:47:28 437.405
AUBIESAT-1 07 Feb 04:38:55 04:42:16 63° 108° (ESE) 04:45:46 437.475
ITAMSAT 1 07 Feb 04:41:05 04:44:26 17° 301° (WNW) 04:47:47 435.822/435.867
DANDE 07 Feb 04:41:26 04:47:33 24° 300° (WNW) 04:54:08 436.750
Cosmos 2504 07 Feb 04:50:22 04:58:19 46° 87° (E) 05:06:37 435.465 / 435.565
STARS 07 Feb 04:51:57 04:52:21 10° 272° (W) 04:52:45 437.465
CUBESAT XI-V 07 Feb 04:56:30 05:01:09 69° 75° (ENE) 05:05:52 437.345
YUBILEINY 07 Feb 05:03:59 05:12:09 42° 289° (WNW) 05:20:26 435.215
AIST 2 07 Feb 05:05:43 05:09:46 54° 240° (WSW) 05:13:46 435.215
AO-7 07 Feb 05:19:54 05:27:54 53° 297° (WNW) 05:35:51 29.400- 29.500
PHONESAT 2.4 07 Feb 05:35:48 05:38:54 40° 188° (S) 05:42:00 2401.200-2431.200
CUTE-I 07 Feb 05:53:58 05:58:38 29° 95° (E) 06:03:17 437.470
STRAND 1 07 Feb 05:56:09 06:00:54 41° 69° (ENE) 06:05:43 437.568
M-CUBED/EXP-1 PRIME 07 Feb 06:02:54 06:03:45 11° 302° (WNW) 06:04:37 437.505
Cubesat XI-IV 07 Feb 06:06:26 06:11:26 38° 97° (E) 06:16:24 437.490
SO-50 07 Feb 06:06:30 06:11:24 82° 124° (SE) 06:16:23 436.795
BRITE-PL 07 Feb 06:10:39 06:14:22 21° 91° (E) 06:17:52 437.365/2234.400
HORYU 2 07 Feb 06:13:38 06:16:21 16° 298° (WNW) 06:19:05 437.375
LilacSat-2 07 Feb 06:13:53 06:17:23 35° 97° (E) 06:20:52 437.200
PRISM 07 Feb 06:22:07 06:25:16 21° 65° (ENE) 06:28:27 437.425
CUBESAT XI-V 07 Feb 06:36:48 06:39:02 13° 271° (W) 06:41:17 437.345
Cosmos 2504 07 Feb 06:43:41 06:51:44 44° 288° (WNW) 07:00:08 435.465 / 435.565
HO-68 07 Feb 07:10:09 07:14:28 16° 88° (E) 07:18:44 435.675
PHONESAT 2.4 07 Feb 07:13:28 07:15:44 18° 204° (SSW) 07:17:59 2401.200-2431.200
AO-7 07 Feb 07:15:05 07:18:48 14° 319° (NW) 07:22:31 29.400- 29.500
CANX-2 07 Feb 07:29:27 07:32:05 16° 91° (E) 07:34:42 2200.000
DOVE 4 07 Feb 07:29:29 07:33:22 32° 96° (E) 07:37:07 437.250
GOMX 1 07 Feb 07:32:14 07:36:48 71° 101° (E) 07:41:04 467.674
CUTE-I 07 Feb 07:33:47 07:38:46 39° 292° (WNW) 07:43:43 437.470
STRAND 1 07 Feb 07:36:00 07:40:13 26° 266° (W) 07:44:29 437.568
Cubesat XI-IV 07 Feb 07:46:43 07:51:24 31° 295° (WNW) 07:56:04 437.490
BRITE-PL 07 Feb 07:48:28 07:53:07 42° 290° (WNW) 07:57:24 437.365/2234.400
SO-50 07 Feb 07:48:54 07:52:32 20° 323° (NW) 07:56:11 436.795
LilacSat-2 07 Feb 07:48:55 07:51:28 17° 294° (WNW) 07:54:01 437.200
PRISM 07 Feb 07:56:34 08:00:23 36° 262° (W) 08:04:16 437.425
Cosmos 2499 07 Feb 08:15:01 08:17:13 11° 70° (ENE) 08:19:27 435.465 / 435.565
CUTE 1.7 + AOD 2 07 Feb 08:19:30 08:23:39 47° 99° (E) 08:27:47 437.475
COMPASS 1 07 Feb 08:23:10 08:26:53 29° 96° (E) 08:30:34 437.405
SEEDS 07 Feb 08:31:25 08:35:33 48° 99° (E) 08:39:40 437.485
GONETS M04 07 Feb 08:32:09 08:39:51 38° 85° (E) 08:47:36
ANTELSAT 07 Feb 08:38:52 08:41:29 16° 63° (ENE) 08:44:04 437.575/2403.000
TIGRISAT 07 Feb 08:46:29 08:49:24 18° 64° (ENE) 08:52:18 435.000
CINEMA 3 07 Feb 08:46:29 08:50:39 77° 101° (ESE) 08:54:49 145.822/145.860
ZACube-1 07 Feb 08:47:43 08:50:04 14° 91° (E) 08:52:25 437.345
AAUSAT CUBESAT 2 07 Feb 08:54:34 08:58:41 53° 100° (E) 09:02:48 437.432
HO-68 07 Feb 08:55:52 09:03:07 88° 104° (ESE) 09:10:20 435.675
FUNcube-1 07 Feb 08:57:58 09:00:52 18° 93° (E) 09:03:47 145.935
O/OREOS (USA 219) 07 Feb 08:58:02 09:02:31 84° 295° (WNW) 09:07:04 437.305
DELFI C3 07 Feb 08:59:18 09:01:15 13° 90° (E) 09:03:12 145.870
CANX-2 07 Feb 09:04:05 09:08:14 49° 287° (WNW) 09:12:22 2200.000
DOVE 4 07 Feb 09:07:31 09:10:57 23° 294° (WNW) 09:14:16 437.250
GOMX 1 07 Feb 09:12:09 09:14:13 13° 301° (WNW) 09:16:15 467.674
CUBEBUG 2 07 Feb 09:14:10 09:18:17 54° 100° (E) 09:22:25 437.445
UWE-3 07 Feb 09:21:30 09:25:33 47° 99° (E) 09:29:38 435.000/436.395/437.385
NANOSAT C BR1 07 Feb 09:22:55 09:24:13 11° 60° (ENE) 09:25:30 145.865
DUCHIFAT 1 07 Feb 09:25:37 09:27:01 11° 60° (ENE) 09:28:25 145.980
QB50P1 07 Feb 09:28:21 09:30:25 13° 62° (ENE) 09:32:28 145.935-145.965
UNISAT 6 07 Feb 09:28:28 09:32:40 49° 72° (ENE) 09:36:49 437.425
HUMSAT D 07 Feb 09:33:07 09:35:12 13° 90° (E) 09:37:18 437.325/437.525
Oscar 11 07 Feb 09:34:42 09:39:02 61° 101° (ESE) 09:43:19 145.826/435.025
CUTE 1.7 + AOD 2 07 Feb 09:56:20 09:59:09 17° 296° (WNW) 10:01:59 437.475
COMPASS 1 07 Feb 09:58:51 10:02:22 26° 292° (WNW) 10:05:52 437.405
Cosmos 2499 07 Feb 09:59:55 10:08:20 59° 91° (E) 10:17:01 435.465 / 435.565
SEEDS 07 Feb 10:08:09 10:10:54 17° 296° (WNW) 10:13:38 437.485
ANTELSAT 07 Feb 10:13:33 10:17:49 53° 260° (W) 10:22:02 437.575/2403.000
POLYITAN 1 07 Feb 10:17:24 10:21:24 42° 71° (ENE) 10:25:24 437.675
QB50P2 07 Feb 10:18:10 10:22:12 44° 71° (ENE) 10:26:15 145.880/145.840
TIGRISAT 07 Feb 10:21:37 10:25:47 46° 261° (W) 10:29:56 435.000
ZACube-1 07 Feb 10:22:35 10:26:40 51° 287° (WNW) 10:30:46 437.345
CINEMA 3 07 Feb 10:26:16 10:27:12 11° 300° (WNW) 10:28:09 145.822/145.860
GONETS M04 07 Feb 10:28:02 10:36:24 51° 286° (WNW) 10:44:51
VELOX 1 07 Feb 10:28:11 10:28:33 10° 88° (E) 10:28:56 145.980
AAUSAT CUBESAT 2 07 Feb 10:31:19 10:33:47 15° 297° (WNW) 10:36:15 437.432
DELFI C3 07 Feb 10:32:33 10:36:30 53° 287° (WNW) 10:40:25 145.870
FUNcube-1 07 Feb 10:33:22 10:37:18 41° 289° (WNW) 10:41:17 145.935
BUGSAT 1 07 Feb 10:37:26 10:41:15 34° 69° (ENE) 10:45:02 437.445
O/OREOS (USA 219) 07 Feb 10:41:02 10:42:41 12° 313° (NW) 10:44:21 437.305
AISAT 07 Feb 10:42:12 10:44:55 16° 91° (E) 10:47:37 437.250
HO-68 07 Feb 10:44:54 10:49:57 21° 306° (NW) 10:55:00 435.675
POPSAT HIP 1 07 Feb 10:48:29 10:52:44 90° 102° (ESE) 10:57:00 437.405
PCSat 07 Feb 10:50:23 10:54:53 27° 109° (ESE) 10:59:23 145.827
ESTCUBE 1 07 Feb 10:51:25 10:55:00 22° 93° (E) 10:58:33 437.505/2401.250
CUBEBUG 2 07 Feb 10:52:12 10:54:30 15° 297° (WNW) 10:56:49 437.445
RS-15 07 Feb 10:54:46 11:03:55 31° 103° (ESE) 11:13:24 29.354- 29.394
NANOSAT C BR1 07 Feb 10:55:07 10:59:21 79° 256° (WSW) 11:03:36 145.865
DUCHIFAT 1 07 Feb 10:57:54 11:02:08 77° 258° (WSW) 11:06:22 145.980
UWE-3 07 Feb 10:59:02 11:01:41 17° 296° (WNW) 11:04:21 435.000/436.395/437.385
JAS-2 07 Feb 10:59:56 11:03:04 13° 52° (NE) 11:06:08 435.910
QB50P1 07 Feb 11:01:29 11:05:42 64° 258° (WSW) 11:09:56 145.935-145.965
AO-85 07 Feb 11:05:54 11:11:06 55° 118° (ESE) 11:16:29 145.980
UNISAT 6 07 Feb 11:07:03 11:09:41 16° 269° (W) 11:12:17 437.425
HUMSAT D 07 Feb 11:07:07 11:11:11 54° 287° (WNW) 11:15:16 437.325/437.525
CUBEBUG 1 07 Feb 11:09:56 11:13:34 25° 95° (E) 11:17:09 437.445
UKube-1 07 Feb 11:10:53 11:14:35 27° 96° (E) 11:18:16 .
Oscar 11 07 Feb 11:12:18 11:14:40 15° 298° (WNW) 11:17:02 145.826/435.025
DX 1 07 Feb 11:17:20 11:21:24 37° 98° (E) 11:25:26 434.975-435.025
50 SAT 07 Feb 11:20:32 11:24:13 47° 99° (E) 11:27:53 437.505
AIST 1 07 Feb 11:21:18 11:25:42 77° 280° (W) 11:30:08
SPROUT 07 Feb 11:26:28 11:28:35 13° 90° (E) 11:30:42 437.525
Oscar 19 07 Feb 11:39:32 11:43:27 22° 63° (ENE) 11:47:24 437.125/150
CUSAT 1 07 Feb 11:47:02 11:51:21 18° 57° (ENE) 11:55:01 437.405
Gurwin Techsat 1B 07 Feb 11:49:44 11:51:16 11° 55° (NE) 11:52:47 435.225
Cosmos 2499 07 Feb 11:54:09 12:01:55 35° 292° (WNW) 12:09:53 435.465 / 435.565
POLYITAN 1 07 Feb 11:54:30 11:57:25 18° 267° (W) 12:00:20 437.675
DANDE 07 Feb 11:55:15 11:59:46 17° 53° (NE) 12:03:47 436.750
QB50P2 07 Feb 11:55:26 11:58:15 17° 268° (W) 12:01:04 145.880/145.840
VELOX 1 07 Feb 12:01:10 12:05:36 80° 287° (WNW) 12:10:01 145.980
BUGSAT 1 07 Feb 12:13:25 12:16:42 22° 266° (W) 12:19:59 437.445
AISAT 07 Feb 12:17:25 12:21:44 51° 288° (WNW) 12:25:59 437.250
ESTCUBE 1 07 Feb 12:27:43 12:31:57 39° 290° (WNW) 12:36:09 437.505/2401.250
PCSat 07 Feb 12:32:47 12:38:00 48° 307° (NW) 12:43:17 145.827
GONETS M04 07 Feb 12:34:49 12:35:50 10° 311° (NW) 12:36:51
JAS-2 07 Feb 12:39:20 12:46:53 60° 70° (ENE) 12:53:50 435.910
AO-7 07 Feb 12:40:05 12:44:29 16° 43° (NE) 12:48:52 29.400- 29.500
ITAMSAT 1 07 Feb 12:42:33 12:45:57 18° 60° (ENE) 12:49:22 435.822/435.867
CUBEBUG 1 07 Feb 12:45:59 12:49:53 32° 292° (WNW) 12:53:44 437.445
UKube-1 07 Feb 12:46:52 12:50:37 29° 293° (WNW) 12:54:21 .
AO-85 07 Feb 12:47:12 12:51:58 30° 318° (NW) 12:56:48 145.980
DX 1 07 Feb 12:54:00 12:57:23 22° 295° (WNW) 13:00:44 434.975-435.025
50 SAT 07 Feb 12:55:51 12:57:53 14° 296° (WNW) 12:59:55 437.505
SO-50 07 Feb 12:57:12 13:00:47 20° 37° (NE) 13:04:17 436.795
SPROUT 07 Feb 13:00:45 13:04:57 57° 287° (WNW) 13:09:06 437.525
RS-15 07 Feb 13:03:54 13:15:06 78° 307° (NW) 13:27:00 29.354- 29.394
YUBILEINY 07 Feb 13:15:35 13:22:36 25° 63° (ENE) 13:29:32 435.215
Oscar 19 07 Feb 13:17:22 13:22:26 52° 260° (W) 13:27:30 437.125/150
TISAT 1 07 Feb 13:20:47 13:25:00 88° 115° (ESE) 13:29:09 437.305
Gurwin Techsat 1B 07 Feb 13:25:00 13:30:16 72° 73° (ENE) 13:35:35 435.225
CUSAT 1 07 Feb 13:28:18 13:34:43 72° 264° (W) 13:39:31 437.405
Cosmos 2491 07 Feb 13:29:17 13:30:35 10° 70° (ENE) 13:31:53 435.465 / 435.565
SWISSCUBE 07 Feb 13:35:20 13:39:20 26° 95° (E) 13:43:19 437.505
DANDE 07 Feb 13:36:46 13:44:24 79° 78° (ENE) 13:50:15 436.750
ITUPSAT 1 07 Feb 14:10:10 14:14:52 50° 100° (E) 14:19:32 437.325
ITAMSAT 1 07 Feb 14:19:44 14:24:53 68° 258° (WSW) 14:30:05 435.822/435.867
BEESAT 07 Feb 14:20:29 14:25:17 64° 102° (ESE) 14:30:02 436.000
PCSat 07 Feb 14:20:49 14:22:48 12° 330° (NNW) 14:24:48 145.827
JAS-2 07 Feb 14:25:32 14:32:07 31° 266° (W) 14:38:22 435.910
AO-7 07 Feb 14:27:24 14:35:33 59° 64° (ENE) 14:43:43 29.400- 29.500
AO-85 07 Feb 14:33:31 14:34:18 10° 340° (NNW) 14:35:06 145.980
SO-50 07 Feb 14:37:02 14:41:53 78° 237° (WSW) 14:46:32 436.795
Cosmos 2504 07 Feb 14:42:19 14:48:10 19° 58° (ENE) 14:53:47 435.465 / 435.565
STARS 07 Feb 15:00:56 15:02:55 13° 90° (E) 15:04:53 437.465
Gurwin Techsat 1B 07 Feb 15:07:43 15:10:46 15° 271° (W) 15:13:49 435.225
KKS-1 07 Feb 15:09:00 15:12:53 29° 96° (E) 15:16:42 437.445
YUBILEINY 07 Feb 15:11:32 15:20:24 78° 265° (W) 15:29:11 435.215
SWISSCUBE 07 Feb 15:12:48 15:17:13 37° 291° (WNW) 15:21:37 437.505
M-CUBED/EXP-1 PRIME 07 Feb 15:14:38 15:18:23 84° 252° (WSW) 15:21:53 437.505
Cosmos 2491 07 Feb 15:16:56 15:25:25 60° 91° (E) 15:33:55 435.465 / 435.565
RS-15 07 Feb 15:19:44 15:29:47 33° 336° (NNW) 15:40:19 29.354- 29.394
DANDE 07 Feb 15:21:24 15:26:06 19° 283° (WNW) 15:30:11 436.750
AUBIESAT-1 07 Feb 15:26:59 15:30:41 72° 252° (WSW) 15:34:10 437.475
HORYU 2 07 Feb 15:35:03 15:39:24 62° 74° (ENE) 15:43:47 437.375
ITUPSAT 1 07 Feb 15:48:49 15:52:21 21° 297° (WNW) 15:55:53 437.325
Cubesat XI-IV 07 Feb 15:54:33 15:55:55 11° 54° (NE) 15:57:17 437.490
BEESAT 07 Feb 15:59:35 16:02:34 17° 299° (WNW) 16:05:31 436.000
MOZHAYETS 4 07 Feb 16:18:33 16:23:10 63° 101° (E) 16:27:46
AO-7 07 Feb 16:21:18 16:28:40 34° 264° (W) 16:36:07 29.400- 29.500
ISS 07 Feb 16:28:44 16:31:27 25° 137° (SE) 16:34:10 145.825
Cosmos 2504 07 Feb 16:34:18 16:43:06 82° 82° (E) 16:51:18 435.465 / 435.565
STARS 07 Feb 16:35:23 16:39:43 63° 287° (WNW) 16:44:01 437.465
KKS-1 07 Feb 16:45:35 16:49:24 29° 293° (WNW) 16:53:12 437.445
CUBESAT XI-V 07 Feb 16:53:00 16:55:53 16° 90° (E) 16:58:45 437.345
LilacSat-2 07 Feb 16:57:42 17:00:43 23° 68° (ENE) 17:03:45 437.200
GOMX 1 07 Feb 17:05:50 17:08:25 14° 60° (ENE) 17:10:56 467.674
YUBILEINY 07 Feb 17:10:53 17:15:38 16° 286° (WNW) 17:20:23 435.215
BEESAT 3 07 Feb 17:11:22 17:14:15 19° 112° (ESE) 17:17:08 437.485
HORYU 2 07 Feb 17:14:16 17:16:23 13° 270° (W) 17:18:31 437.375
Cosmos 2491 07 Feb 17:15:10 17:22:45 33° 293° (WNW) 17:30:23 435.465 / 435.565
CUTE-I 07 Feb 17:17:01 17:22:10 54° 71° (ENE) 17:27:23 437.470
BRITE-PL 07 Feb 17:21:16 17:26:20 34° 68° (ENE) 17:31:19 437.365/2234.400
O/OREOS (USA 219) 07 Feb 17:27:45 17:31:41 27° 57° (ENE) 17:35:36 437.305
Cubesat XI-IV 07 Feb 17:29:45 17:35:01 70° 73° (ENE) 17:40:22 437.490
BEESAT 2 07 Feb 17:30:38 17:33:37 20° 113° (ESE) 17:36:36 435.950
RS-15 07 Feb 17:37:20 17:47:07 28° 11° (NNE) 17:57:11 29.354- 29.394
HO-68 07 Feb 17:41:37 17:45:53 17° 50° (NE) 17:50:08 435.675
MOZHAYETS 4 07 Feb 17:57:04 17:59:51 16° 298° (WNW) 18:02:37
AO-85 07 Feb 17:57:16 18:00:32 16° 31° (NNE) 18:03:40 145.980
ISS 07 Feb 18:04:35 18:07:45 48° 334° (NNW) 18:10:55 145.825
STRAND 1 07 Feb 18:07:13 18:09:11 12° 88° (E) 18:11:10 437.568
CANX-2 07 Feb 18:24:22 18:26:37 14° 62° (ENE) 18:28:53 2200.000
CUBESAT XI-V 07 Feb 18:29:00 18:33:39 58° 287° (WNW) 18:38:14 437.345
Cosmos 2504 07 Feb 18:29:15 18:35:19 22° 283° (WNW) 18:41:11 435.465 / 435.565
LilacSat-2 07 Feb 18:31:39 18:34:56 27° 264° (W) 18:38:14 437.200
DOVE 4 07 Feb 18:35:20 18:40:11 44° 71° (ENE) 18:44:49 437.250
GOMX 1 07 Feb 18:40:19 18:45:47 87° 72° (ENE) 18:51:03 467.674
GONETS M04 07 Feb 18:40:26 18:46:37 20° 60° (ENE) 18:52:47
BEESAT 3 07 Feb 18:47:55 18:51:43 42° 310° (NW) 18:55:33 437.485
CUTE-I 07 Feb 18:58:38 19:02:34 21° 268° (W) 19:06:31 437.470
BRITE-PL 07 Feb 18:59:25 19:04:41 38° 264° (W) 19:09:54 437.365/2234.400
AIST 2 07 Feb 19:05:09 19:08:22 22° 113° (ESE) 19:11:35 435.215
O/OREOS (USA 219) 07 Feb 19:06:59 19:11:07 34° 255° (WSW) 19:15:16 437.305
BEESAT 2 07 Feb 19:07:25 19:11:15 41° 310° (NW) 19:15:07 435.950
Cubesat XI-IV 07 Feb 19:12:27 19:15:38 16° 270° (W) 19:18:50 437.490
CUTE 1.7 + AOD 2 07 Feb 19:13:29 19:17:24 39° 71° (ENE) 19:21:22 437.475
COMPASS 1 07 Feb 19:15:38 19:18:58 24° 67° (ENE) 19:22:21 437.405
SEEDS 07 Feb 19:24:29 19:28:22 39° 71° (ENE) 19:32:17 437.485
HO-68 07 Feb 19:25:17 19:32:26 76° 70° (ENE) 19:39:38 435.675
PCSat 07 Feb 19:36:01 19:40:54 33° 48° (NE) 19:45:46 145.827
AO-85 07 Feb 19:36:55 19:42:09 66° 53° (NE) 19:46:54 145.980
PRISM 07 Feb 19:36:57 19:40:31 26° 96° (E) 19:44:03 437.425
ISS 07 Feb 19:42:11 19:44:44 21° 354° (N) 19:47:18 145.825
STRAND 1 07 Feb 19:43:49 19:49:01 86° 286° (WNW) 19:54:12 437.568
ZACube-1 07 Feb 19:45:30 19:47:49 15° 63° (ENE) 19:50:08 437.345
AAUSAT CUBESAT 2 07 Feb 19:46:10 19:50:02 41° 71° (ENE) 19:53:58 437.432
CINEMA 3 07 Feb 19:48:54 19:53:36 83° 75° (ENE) 19:58:06 145.822/145.860
DELFI C3 07 Feb 19:48:57 19:49:26 10° 61° (ENE) 19:49:56 145.870
Cosmos 2499 07 Feb 19:50:48 19:57:21 24° 62° (ENE) 20:03:31 435.465 / 435.565
RS-15 07 Feb 19:51:23 20:03:11 54° 43° (NE) 20:15:11 29.354- 29.394
FUNcube-1 07 Feb 19:55:23 19:58:10 18° 65° (ENE) 20:00:58 145.935
CANX-2 07 Feb 19:57:52 20:02:00 58° 260° (W) 20:06:12 2200.000
CUBEBUG 2 07 Feb 20:13:27 20:17:42 54° 73° (ENE) 20:21:51 437.445
DOVE 4 07 Feb 20:13:53 20:18:00 24° 266° (W) 20:21:59 437.250
UWE-3 07 Feb 20:19:46 20:23:52 45° 72° (ENE) 20:27:53 435.000/436.395/437.385
GOMX 1 07 Feb 20:22:02 20:24:25 13° 272° (W) 20:26:47 467.674
HUMSAT D 07 Feb 20:26:55 20:28:30 12° 62° (ENE) 20:30:05 437.325/437.525
Oscar 11 07 Feb 20:30:34 20:34:45 55° 73° (ENE) 20:38:58 145.826/435.025
GONETS M04 07 Feb 20:35:57 20:44:48 88° 85° (E) 20:53:39
AIST 2 07 Feb 20:42:40 20:46:38 41° 311° (NW) 20:50:37 435.215
CUTE 1.7 + AOD 2 07 Feb 20:50:27 20:53:26 19° 268° (W) 20:56:26 437.475
COMPASS 1 07 Feb 20:50:46 20:54:26 30° 264° (W) 20:58:09 437.405
SEEDS 07 Feb 21:01:19 21:04:15 19° 268° (W) 21:07:13 437.485
PRISM 07 Feb 21:12:14 21:15:49 28° 293° (WNW) 21:19:23 437.425
HO-68 07 Feb 21:15:35 21:20:50 22° 269° (W) 21:26:08 435.675
AO-85 07 Feb 21:18:44 21:22:02 18° 252° (WSW) 21:25:10 145.980
ISS 07 Feb 21:19:07 21:21:55 26° 14° (NNE) 21:24:43 145.825
PCSat 07 Feb 21:19:18 21:24:25 43° 247° (WSW) 21:29:30 145.827
ZACube-1 07 Feb 21:19:33 21:23:42 55° 260° (W) 21:27:50 437.345
DELFI C3 07 Feb 21:19:47 21:23:45 77° 258° (WSW) 21:27:45 145.870
AAUSAT CUBESAT 2 07 Feb 21:22:59 21:25:45 17° 268° (W) 21:28:33 437.432
STRAND 1 07 Feb 21:25:10 21:27:24 13° 303° (WNW) 21:29:38 437.568
VELOX 1 07 Feb 21:26:10 21:28:06 13° 60° (ENE) 21:30:03 145.980
AIST 1 07 Feb 21:27:17 21:31:08 29° 74° (ENE) 21:34:55
FUNcube-1 07 Feb 21:30:05 21:34:08 44° 261° (W) 21:38:08 145.935
CINEMA 3 07 Feb 21:30:28 21:31:14 10° 271° (W) 21:32:00 145.822/145.860
AISAT 07 Feb 21:41:03 21:44:08 19° 63° (ENE) 21:47:13 437.250
Cosmos 2499 07 Feb 21:43:02 21:51:36 80° 265° (W) 21:59:28 435.465 / 435.565
CUBEBUG 2 07 Feb 21:52:18 21:54:39 14° 269° (W) 21:56:58 437.445
ESTCUBE 1 07 Feb 21:52:21 21:56:02 25° 66° (ENE) 21:59:44 437.505/2401.250
UWE-3 07 Feb 21:57:51 22:00:34 16° 268° (W) 22:03:17 435.000/436.395/437.385
HUMSAT D 07 Feb 21:59:34 22:03:38 67° 259° (W) 22:07:42 437.325/437.525
50 SAT 07 Feb 22:02:26 22:05:38 28° 69° (ENE) 22:08:51 437.505
ANTELSAT 07 Feb 22:03:57 22:07:37 26° 95° (E) 22:11:18 437.575/2403.000
RS-15 07 Feb 22:04:12 22:15:54 57° 247° (WSW) 22:27:44 29.354- 29.394
UKube-1 07 Feb 22:06:47 22:10:30 28° 67° (ENE) 22:14:14 .
CUBEBUG 1 07 Feb 22:07:14 22:10:54 26° 67° (ENE) 22:14:35 437.445
Oscar 11 07 Feb 22:08:55 22:11:14 14° 270° (W) 22:13:34 145.826/435.025
TIGRISAT 07 Feb 22:11:36 22:15:24 30° 96° (E) 22:19:15 435.000
DX 1 07 Feb 22:13:59 22:18:04 39° 70° (ENE) 22:22:10 434.975-435.025
SPROUT 07 Feb 22:22:03 22:24:14 14° 62° (ENE) 22:26:25 437.525
POPSAT HIP 1 07 Feb 22:33:44 22:35:42 13° 90° (E) 22:37:39 437.405
GONETS M04 07 Feb 22:34:34 22:40:24 20° 283° (WNW) 22:46:17
NANOSAT C BR1 07 Feb 22:39:38 22:42:02 15° 91° (E) 22:44:25 145.865
DUCHIFAT 1 07 Feb 22:42:08 22:44:34 15° 91° (E) 22:46:59 145.980
QB50P1 07 Feb 22:45:50 22:48:45 18° 92° (E) 22:51:38 145.935-145.965
UNISAT 6 07 Feb 22:55:00 22:59:19 87° 289° (WNW) 23:03:44 437.425
ISS 07 Feb 22:55:24 22:58:40 82° 211° (SSW) 23:01:54 145.825
VELOX 1 07 Feb 22:59:30 23:03:59 77° 258° (WSW) 23:08:28 145.980
AIST 1 07 Feb 23:05:03 23:08:37 25° 272° (W) 23:12:07
AISAT 07 Feb 23:15:56 23:20:16 49° 260° (W) 23:24:38 437.250
ESTCUBE 1 07 Feb 23:28:32 23:32:40 35° 263° (W) 23:36:52 437.505/2401.250
POLYITAN 1 07 Feb 23:36:29 23:40:41 66° 102° (ESE) 23:44:51 437.675
50 SAT 07 Feb 23:36:54 23:39:42 20° 266° (W) 23:42:31 437.505
QB50P2 07 Feb 23:37:16 23:41:29 69° 103° (ESE) 23:45:39 145.880/145.840
Cosmos 2499 07 Feb 23:38:36 23:43:09 16° 286° (WNW) 23:47:33 435.465 / 435.565
ANTELSAT 07 Feb 23:40:34 23:44:20 30° 291° (WNW) 23:48:08 437.575/2403.000
UKube-1 07 Feb 23:42:46 23:46:31 28° 264° (W) 23:50:17 .
CUBEBUG 1 07 Feb 23:43:04 23:47:04 32° 264° (W) 23:51:05 437.445
TIGRISAT 07 Feb 23:48:26 23:52:01 26° 293° (WNW) 23:55:38 435.000
DX 1 07 Feb 23:51:06 23:54:24 21° 266° (W) 23:57:44 434.975-435.025
BUGSAT 1 07 Feb 23:52:57 23:56:52 46° 99° (E) 00:00:44 437.445
BEESAT 07 Feb 23:54:20 23:55:50 11° 57° (ENE) 23:57:19 436.000
SPROUT 07 Feb 23:55:26 23:59:42 64° 258° (WSW) 00:03:59 437.525
POPSAT HIP 1 08 Feb 00:07:44 00:11:53 57° 286° (WNW) 00:15:58 437.405
TISAT 1 08 Feb 00:13:30 00:17:44 78° 76° (ENE) 00:21:58 437.305
NANOSAT C BR1 08 Feb 00:14:00 00:18:05 50° 288° (WNW) 00:22:07 145.865
DUCHIFAT 1 08 Feb 00:16:31 00:20:34 49° 288° (WNW) 00:24:35 145.980
QB50P1 08 Feb 00:20:46 00:24:44 41° 289° (WNW) 00:28:40 145.935-145.965
RS-15 08 Feb 00:22:23 00:25:30 11° 269° (W) 00:28:38 29.354- 29.394
ISS 08 Feb 00:33:46 00:34:37 11° 229° (SW) 00:35:28 145.825
SWISSCUBE 08 Feb 00:43:03 00:47:20 34° 68° (ENE) 00:51:38 437.505
CUSAT 1 08 Feb 00:49:48 00:55:47 24° 82° (E) 01:01:53 437.405
DANDE 08 Feb 01:04:44 01:09:44 19° 78° (ENE) 01:15:00 436.750
POLYITAN 1 08 Feb 01:14:04 01:15:59 13° 299° (WNW) 01:17:54 437.675
QB50P2 08 Feb 01:14:59 01:16:44 12° 299° (WNW) 01:18:29 145.880/145.840
ITUPSAT 1 08 Feb 01:18:06 01:22:50 67° 73° (ENE) 01:27:36 437.325
Cosmos 2491 08 Feb 01:25:40 01:33:18 32° 67° (ENE) 01:40:52 435.465 / 435.565
BEESAT 3 08 Feb 01:26:59 01:30:05 21° 43° (NE) 01:33:11 437.485
Oscar 19 08 Feb 01:27:24 01:32:23 49° 99° (E) 01:37:20 437.125/150
BEESAT 08 Feb 01:28:05 01:32:50 85° 79° (E) 01:37:39 436.000
PHONESAT 2.4 08 Feb 01:29:17 01:30:48 13° 151° (SSE) 01:32:19 2401.200-2431.200
BUGSAT 1 08 Feb 01:29:24 01:31:55 16° 296° (WNW) 01:34:23 437.445
JAS-2 08 Feb 01:33:39 01:39:02 39° 96° (E) 01:43:58 435.910
Gurwin Techsat 1B 08 Feb 01:40:19 01:44:43 26° 94° (E) 01:49:06 435.225
BEESAT 2 08 Feb 01:47:00 01:50:12 22° 43° (NE) 01:53:23 435.950
STARS 08 Feb 01:59:02 02:01:34 15° 62° (ENE) 02:04:06 437.465
KKS-1 08 Feb 02:08:18 02:12:17 32° 68° (ENE) 02:16:15 437.445
YUBILEINY 08 Feb 02:19:33 02:26:21 26° 80° (E) 02:33:10 435.215
SWISSCUBE 08 Feb 02:21:08 02:25:10 27° 265° (W) 02:29:15 437.505
CUSAT 1 08 Feb 02:29:21 02:37:16 81° 281° (W) 02:45:24 437.405
AO-7 08 Feb 02:29:36 02:34:06 15° 87° (E) 02:38:31 29.400- 29.500
ITAMSAT 1 08 Feb 02:31:15 02:36:08 39° 98° (E) 02:41:00 435.822/435.867
